This demonstration page uses our WeatherBlox Daily Observations layout. Learn more.

Hourly Observations for April 1, 2017

Temp ( °F °C ) Dew Point ( °F °C ) Humidity (%) Winds ( mph kmh ) Pressure ( in mb ) Visibility ( mi km ) Precip ( " mm )
12:15 am 00:15 Cloudy 43 6 39 4.1 88 88 NNE 3 6 30.18 1022 10 16.0934 0 0
12:35 am 00:35 Cloudy 43 6 39 4.1 88 88 NNE 3 6 30.18 1022 10 16.0934 0 0
12:55 am 00:55 Cloudy 42 5.8 39 4.1 89 89 NNE 7 11 30.18 1022 10 16.0934 0 0
1:15 am 01:15 Cloudy 43 6 39 4 87 87 NNE 6 9 30.18 1022 10 16.0934 0 0
1:35 am 01:35 Cloudy 43 6 39 3.9 87 87 NNE 7 11 30.18 1022 10 16.0934 0 0
1:55 am 01:55 Cloudy 43 5.9 39 4 88 88 N 7 11 30.18 1022 10 16.0934 0 0
2:15 am 02:15 Cloudy 43 6 39 3.8 86 86 NNE 7 11 30.18 1022 10 16.0934 0 0
2:35 am 02:35 Cloudy 42 5.8 39 3.7 87 87 NNE 9 15 30.18 1022 10 16.0934 0 0
2:55 am 02:55 Cloudy 42 5.8 39 3.7 87 87 NNE 7 11 30.18 1022 10 16.0934 0 0
3:15 am 03:15 Cloudy 42 5.8 38 3.5 85 85 NNE 6 9 30.18 1022 10 16.0934 0 0
3:35 am 03:35 Cloudy 42 5.7 38 3.5 86 86 N 3 6 30.18 1022 10 16.0934 0 0
3:55 am 03:55 Cloudy 42 5.6 38 3.5 87 87 N 5 7 30.18 1022 10 16.0934 0 0
4:15 am 04:15 Cloudy 42 5.6 38 3.5 87 87 N 3 6 30.18 1022 10 16.0934 0 0
4:35 am 04:35 Cloudy 42 5.5 38 3.3 86 86 Calm 30.18 1022 10 16.0934 0 0
4:55 am 04:55 Cloudy 41 5.2 38 3.3 88 88 N 3 6 30.18 1022 10 16.0934 0 0
5:15 am 05:15 Cloudy 41 5.1 37 3 86 86 N 5 7 30.18 1022 10 16.0934 0 0
5:35 am 05:35 Cloudy 41 5.1 37 3 86 86 N 5 7 30.18 1022 10 16.0934 0 0
5:55 am 05:55 Cloudy 41 5 38 3.1 88 88 N 7 11 30.18 1022 10 16.0934 0 0
6:15 am 06:15 Mostly Cloudy 41 4.9 37 3 88 88 N 7 11 30.18 1022 10 16.0934 0 0
6:35 am 06:35 Clear 40 4.7 37 3 89 89 N 7 11 30.18 1022 10 16.0934 0 0
6:55 am 06:55 Partly Cloudy 40 4.6 37 2.7 88 88 N 7 11 30.18 1022 10 16.0934 0 0
7:15 am 07:15 Mostly Cloudy 40 4.5 37 2.7 88 88 NNE 8 13 30.18 1022 10 16.0934 0 0
7:35 am 07:35 Cloudy 40 4.6 37 2.6 87 87 NNE 7 11 30.18 1022 10 16.0934 0 0
7:55 am 07:55 Cloudy 40 4.5 37 2.6 88 88 NNE 7 11 30.18 1022 10 16.0934 0 0
8:15 am 08:15 Cloudy 40 4.5 37 2.7 88 88 NNE 3 6 30.18 1022 10 16.0934 0 0
8:35 am 08:35 Cloudy 40 4.6 37 2.8 88 88 Calm 30.21 1023 10 16.0934 0 0
8:55 am 08:55 Cloudy 41 4.8 37 3 88 88 Calm 30.24 1024 10 16.0934 0 0
9:15 am 09:15 Cloudy 41 5 38 3.1 88 88 N 5 7 30.21 1023 10 16.0934 0 0
9:35 am 09:35 Mostly Cloudy 41 5.1 37 3 86 86 ENE 7 11 30.21 1023 10 16.0934 0 0
9:55 am 09:55 Partly Cloudy 41 5.1 37 3 86 86 NE 10 17 30.18 1022 10 16.0934 0 0
10:15 am 10:15 Mostly Cloudy 42 5.3 38 3.3 87 87 NE 6 9 30.21 1023 10 16.0934 0 0
10:35 am 10:35 Mostly Cloudy 42 5.4 38 3.3 86 86 NE 6 9 30.21 1023 10 16.0934 0 0
10:55 am 10:55 Partly Cloudy 44 6.5 39 3.8 83 83 NE 7 11 30.18 1022 10 16.0934 0 0
11:15 am 11:15 Mostly Cloudy 45 7.2 39 4.1 81 81 ENE 8 13 30.15 1021 10 16.0934 0 0
11:35 am 11:35 Mostly Cloudy 46 8 39 4.1 77 77 E 6 9 30.15 1021 10 16.0934 0 0
11:55 am 11:55 Cloudy 46 7.6 39 4.1 79 79 ENE 7 11 30.15 1021 10 16.0934 0 0
12:15 pm 12:15 Cloudy 46 7.6 39 4 78 78 E 5 7 30.15 1021 10 16.0934 0 0
12:35 pm 12:35 Cloudy 46 7.6 39 3.9 78 78 E 6 9 30.15 1021 10 16.0934 0 0
12:55 pm 12:55 Cloudy 46 7.5 39 3.8 78 78 E 5 7 30.15 1021 10 16.0934 0 0
1:15 pm 13:15 Cloudy 46 7.5 39 3.8 78 78 E 5 7 30.15 1021 10 16.0934 0 0
1:35 pm 13:35 Cloudy 46 7.6 39 3.9 78 78 E 5 7 30.15 1021 10 16.0934 0 0
1:55 pm 13:55 Cloudy 45 7.3 39 4 80 80 NE 6 9 30.15 1021 10 16.0934 0 0
2:15 pm 14:15 Cloudy 45 7.2 40 4.2 81 81 NE 6 9 30.15 1021 10 16.0934 0 0
2:35 pm 14:35 Cloudy 45 7 39 4.1 82 82 NE 8 13 30.18 1022 10 16.0934 0 0
2:55 pm 14:55 Cloudy 45 7.1 39 4.1 81 81 NNE 6 9 30.15 1021 10 16.0934 0 0
3:15 pm 15:15 Cloudy 45 7.1 40 4.2 82 82 NE 10 17 30.15 1021 10 16.0934 0 0
3:35 pm 15:35 Cloudy 45 7.1 40 4.2 82 82 NNE 9 15 30.15 1021 10 16.0934 0 0
3:55 pm 15:55 Cloudy with Light Rain 45 7.1 40 4.4 83 83 NE 7 11 30.15 1021 10 16.0934 0 0
4:15 pm 16:15 Cloudy with Light Drizzle 44 6.8 40 4.7 87 87 ENE 8 13 30.18 1022 10 16.0934 0 0
4:35 pm 16:35 Cloudy with Light Drizzle 44 6.6 41 4.8 88 88 NE 9 15 30.15 1021 7 11.26538 0 0
4:55 pm 16:55 Cloudy with Light Rain 44 6.5 41 4.9 90 90 ENE 7 11 30.15 1021 7 11.26538 0 0
5:15 pm 17:15 Cloudy with Light Rain 44 6.5 41 5 90 90 E 8 13 30.18 1022 7 11.26538 0 0
5:35 pm 17:35 Cloudy 44 6.5 41 5.1 91 91 NE 10 17 30.15 1021 5 8.0467 0 0
5:55 pm 17:55 Cloudy with Light Drizzle 44 6.5 41 5.1 91 91 NE 7 11 30.15 1021 5 8.0467 0.01 0.254
6:15 pm 18:15 Cloudy with Light Drizzle 44 6.5 41 5.2 92 92 NE 7 11 30.15 1021 5 8.0467 0 0
6:35 pm 18:35 Cloudy with Light Drizzle 44 6.5 41 5 90 90 E 5 7 30.18 1022 7 11.26538 0 0
6:55 pm 18:55 Cloudy 44 6.4 41 5 91 91 E 6 9 30.18 1022 7 11.26538 0 0
7:15 pm 19:15 Cloudy 43 6.2 41 5 92 92 E 6 9 30.18 1022 7 11.26538 0 0
7:35 pm 19:35 Cloudy 43 6.1 41 5 93 93 E 6 9 30.18 1022 7 11.26538 0 0
7:55 pm 19:55 Cloudy with Mist and Fog 43 6 41 5 93 93 E 5 7 30.18 1022 5 8.0467 0 0
8:15 pm 20:15 Cloudy with Mist and Fog 43 6 41 5 93 93 E 6 9 30.15 1021 5 8.0467 0 0
8:35 pm 20:35 Cloudy with Mist and Fog 42 5.8 41 4.8 93 93 E 8 13 30.15 1021 4 6.43736 0 0
8:55 pm 20:55 Cloudy with Mist and Fog 42 5.6 40 4.6 93 93 ESE 8 13 30.15 1021 5 8.0467 0 0
9:15 pm 21:15 Cloudy with Mist and Fog 42 5.3 40 4.5 95 95 SE 8 13 30.18 1022 3 4.82802 0 0
9:35 pm 21:35 Cloudy with Mist and Fog 41 5.1 40 4.3 95 95 ESE 9 15 30.15 1021 2.5 4.02335 0 0
9:55 pm 21:55 Cloudy with Mist and Fog 41 5.1 40 4.5 96 96 SE 6 9 30.15 1021 2.5 4.02335 0 0
10:15 pm 22:15 Cloudy with Mist and Fog 41 5 40 4.3 95 95 SE 7 11 30.15 1021 2 3.21868 0 0
10:35 pm 22:35 Cloudy with Mist and Fog 41 5 40 4.3 95 95 ESE 6 9 30.15 1021 5 8.0467 0 0
10:55 pm 22:55 Cloudy with Mist and Fog 41 5 40 4.2 95 95 ESE 6 9 30.15 1021 4 6.43736 0 0
11:15 pm 23:15 Cloudy with Mist and Fog 41 5 39 4.1 94 94 ESE 7 11 30.15 1021 4 6.43736 0 0
11:35 pm 23:35 Cloudy with Mist and Fog 41 4.8 39 4 95 95 ESE 6 9 30.15 1021 4 6.43736 0 0
11:55 pm 23:55 Cloudy with Mist and Fog 40 4.7 39 4 95 95 SE 6 9 30.15 1021 4 6.43736 0 0

Powered by AerisWeather